Lawrenceville, GA

10:21 PM EST on December 14, 2019 (GMT -0500)
Gwinnett County-Briscoe

Weather History for KLZU - September, 2019

Change the Weather History Date:

Saturday, September 28, 2019

  Actual Average (WUND) Record (WUND)
Temperature  
Mean Temperature 80 °F -  
Max Temperature 90 °F - - (-1)
Min Temperature 72 °F - - (-1)
Cooling Degree Days 16    
Growing Degree Days 30 (Base 50)    
Moisture  
Dew Point 72 °F    
Average Humidity 78    
Maximum Humidity 94    
Minimum Humidity 59    
Precipitation  
Precipitation 0.00 in - - ()
Sea Level Pressure  
Sea Level Pressure 30.14 in    
Wind  
Wind Speed 5 mph (ESE)    
Max Wind Speed 8 mph    
Max Gust Speed -    
Visibility 9 miles    
Events Thunderstorm    
Averages and records for this station are not official NWS values.
T = Trace of Precipitation, MM = Missing Value Source: NWS Daily Summary

Daily Weather History Graph

Daily Weather History Graph

Search for Another Location

Airport or City:

Astronomy

Sep. 28, 2019 Rise Set
Actual Time 7:28 AM EDT 7:24 PM EDT
Civil Twilight 7:03 AM EDT 7:49 PM EDT
Nautical Twilight 6:34 AM EDT 8:18 PM EDT
Astronomical Twilight 6:04 AM EDT 8:47 PM EDT
Moon 7:07 AM EDT (9/28) 7:47 PM EDT (9/28)
Length of Visible Light 12h 46m
Length of Day
11h 56m
Waning Crescent, 0% of the Moon is Illuminated
Sep 28
Waning Crescent
Sep 28
New
Oct 5
First Quarter
Oct 13
Full
Oct 21
Last Quarter

Hourly Weather History & Observations

Time (EDT) Temp. Heat Index Dew Point Humidity Pressure Visibility Wind Dir Wind Speed Gust Speed Precip Events Conditions
12:56 AM 78.1 °F - 69.1 °F 74% 30.05 in 10.0 mi ESE 4.6 mph - N/A   Clear
1:56 AM 77.0 °F - 70.0 °F 79% 30.03 in 10.0 mi ESE 5.8 mph - N/A   Clear
2:56 AM 77.0 °F - 70.0 °F 79% 30.05 in 10.0 mi SSE 5.8 mph - N/A   Clear
3:56 AM 75.9 °F - 70.0 °F 82% 30.05 in 10.0 mi South 6.9 mph - N/A   Clear
4:56 AM 75.0 °F - 70.0 °F 84% 30.07 in 10.0 mi NE 3.5 mph - N/A   Clear
5:56 AM 73.0 °F - 71.1 °F 93% 30.09 in 10.0 mi East 3.5 mph - N/A   Clear
6:56 AM 73.0 °F - 71.1 °F 93% 30.11 in 10.0 mi East 5.8 mph - N/A   Scattered Clouds
7:56 AM 72.0 °F - 70.0 °F 93% 30.14 in 10.0 mi East 4.6 mph - N/A   Clear
8:56 AM 73.9 °F - 70.0 °F 87% 30.16 in 10.0 mi East 5.8 mph - N/A   Clear
9:21 AM 75.2 °F - 71.6 °F 89% 30.16 in 10.0 mi ESE 6.9 mph - N/A   Mostly Cloudy
9:56 AM 75.0 °F - 70.0 °F 84% 30.18 in 10.0 mi East 8.1 mph - N/A   Overcast
10:56 AM 77.0 °F - 71.1 °F 82% 30.19 in 10.0 mi ENE 4.6 mph - N/A   Overcast
11:40 AM 78.8 °F - 71.6 °F 78% 30.19 in 10.0 mi Variable 4.6 mph - N/A   Overcast
11:47 AM 78.8 °F - 71.6 °F 78% 30.20 in 10.0 mi ESE 4.6 mph - N/A   Overcast
11:56 AM 78.1 °F - 71.1 °F 79% 30.19 in 10.0 mi East 5.8 mph - N/A   Overcast
12:56 PM 81.0 °F 85.2 °F 72.0 °F 74% 30.18 in 10.0 mi Variable 3.5 mph - N/A   Mostly Cloudy
1:32 PM 82.4 °F 87.2 °F 71.6 °F 70% 30.17 in 6.0 mi Variable 3.5 mph - N/A   Haze
1:56 PM 84.9 °F 91.4 °F 73.0 °F 67% 30.16 in 7.0 mi SE 5.8 mph - N/A   Clear
2:56 PM 87.1 °F 94.5 °F 73.0 °F 63% 30.14 in 7.0 mi SSE 4.6 mph - N/A   Clear
3:56 PM 88.0 °F 94.7 °F 72.0 °F 59% 30.13 in 7.0 mi Variable 3.5 mph - N/A   Clear
4:56 PM 89.1 °F 97.0 °F 73.0 °F 59% 30.12 in 10.0 mi East 5.8 mph - N/A   Clear
5:56 PM 88.0 °F 94.7 °F 72.0 °F 59% 30.12 in 7.0 mi East 4.6 mph - N/A   Clear
6:56 PM 86.0 °F 93.0 °F 73.0 °F 65% 30.13 in 10.0 mi East 5.8 mph - N/A Thunderstorm Clear
7:21 PM 84.2 °F 90.9 °F 73.4 °F 70% 30.14 in 10.0 mi ENE 6.9 mph - N/A   Clear
7:56 PM 82.0 °F 87.4 °F 73.0 °F 74% 30.16 in 10.0 mi ENE 4.6 mph - N/A   Clear
8:56 PM 79.0 °F - 73.9 °F 84% 30.16 in 10.0 mi Calm Calm - N/A   Clear
9:56 PM 79.0 °F - 73.0 °F 82% 30.16 in 10.0 mi Variable 3.5 mph - N/A   Partly Cloudy
10:56 PM 79.0 °F - 73.9 °F 84% 30.18 in 10.0 mi Calm Calm - N/A   Mostly Cloudy
11:56 PM 75.9 °F - 73.9 °F 94% 30.18 in 10.0 mi Calm Calm - N/A   Clear